Location: Newark
(21.1200°N, 73.4000°E)
Time: 05:47:34
(UTC+00:00)

Explorer 11/Cluster Stage 4 - Pass Details

Date: 26 January 2020
Orbit: 467 x 1259 km, 28.8° (Epoch: 19 February)

Event Time Altitude Azimuth Distance (km) Brightness Sun altitude
Rises 04:36:42 0° 202° (SSW) 3,736 10.3 33.7°
Reaches altitude 10° 04:40:20 10° 183° (S) 2,927 10.1 34.3°
Maximum altitude 04:44:55 17° 144° (SE) 2,549 10.9 35.1°
Drops below altitude 10° 04:49:48 10° 106° (ESE) 3,176 10.7 35.9°
Sets 04:53:57 0° 89° (E) 4,191 10.8 36.6°
